| time (UTC) | temp C | wind direction | speed KPH | gust KPH | rain 1hr cm | rain 24hr cm | rain mn cm | humidity % | barometer mb |
| 20260510000004 | 10 | 295 | 6.4 | 11.3 | 0.00 | 0.86 | 0.86 | 94 | 1009.5 |
| 20260509235005 | 10 | 340 | 19.3 | 40.2 | 0.00 | 0.69 | 0.69 | 93 | 1008.7 |
| 20260509234006 | 11 | 273 | 25.7 | 37.0 | 0.00 | 0.56 | 0.56 | 88 | 1008.5 |
| 20260509233001 | 13 | 250 | 12.9 | 25.7 | 0.00 | 0.43 | 0.43 | 77 | 1008.1 |
| 20260509232002 | 17 | 228 | 4.8 | 9.7 | 0.00 | 0.41 | 0.41 | 60 | 1006.4 |
| 20260509231003 | 17 | 250 | 16.1 | 22.5 | 0.00 | 0.41 | 0.41 | 56 | 1006.5 |
| 20260509230003 | 17 | 228 | 9.7 | 19.3 | 0.00 | 0.41 | 0.41 | 54 | 1006.3 |
| 20260509225004 | 17 | 250 | 12.9 | 19.3 | 0.00 | 0.41 | 0.41 | 53 | 1006.2 |
| 20260509224005 | 17 | 205 | 12.9 | 20.9 | 0.00 | 0.41 | 0.41 | 52 | 1005.8 |
| 20260509223006 | 17 | 250 | 11.3 | 14.5 | 0.00 | 0.41 | 0.41 | 53 | 1005.7 |
| 20260509222006 | 18 | 228 | 6.4 | 9.7 | 0.00 | 0.41 | 0.41 | 53 | 1005.7 |
| 20260509221021 | 18 | 205 | 11.3 | 14.5 | 0.00 | 0.41 | 0.41 | 52 | 1005.9 |
| 20260509215001 | 18 | 228 | 19.3 | 25.7 | 0.00 | 0.41 | 0.41 | 50 | 1005.9 |
| 20260509214002 | 18 | 205 | 16.1 | 19.3 | 0.00 | 0.41 | 0.41 | 50 | 1005.6 |
| 20260509210006 | 18 | 228 | 16.1 | 27.4 | 0.00 | 0.41 | 0.41 | 52 | 1006.1 |
| 20260509204006 | 18 | 205 | 22.5 | 30.6 | 0.00 | 0.41 | 0.41 | 51 | 1006.5 |
| 20260509203006 | 18 | 205 | 14.5 | 20.9 | 0.00 | 0.41 | 0.41 | 52 | 1006.3 |
| 20260509202007 | 18 | 228 | 16.1 | 22.5 | 0.00 | 0.41 | 0.41 | 52 | 1007.2 |
| 20260509201002 | 18 | 228 | 19.3 | 29.0 | 0.00 | 0.41 | 0.41 | 52 | 1006.6 |
| 20260509200002 | 18 | 250 | 25.7 | 37.0 | 0.00 | 0.41 | 0.41 | 50 | 1006.8 |
| 20260509195003 | 18 | 228 | 20.9 | 30.6 | 0.00 | 0.41 | 0.41 | 57 | 1006.9 |
| 20260509194004 | 17 | 228 | 12.9 | 20.9 | 0.00 | 0.41 | 0.41 | 54 | 1006.8 |
| 20260509193005 | 17 | 250 | 12.9 | 19.3 | 0.00 | 0.41 | 0.41 | 57 | 1007.1 |
| 20260509192006 | 17 | 205 | 17.7 | 22.5 | 0.00 | 0.41 | 0.41 | 59 | 1007.3 |
| 20260509191006 | 17 | 205 | 17.7 | 27.4 | 0.00 | 0.41 | 0.41 | 58 | 1007.4 |
| 20260509185006 | 17 | 228 | 25.7 | 33.8 | 0.00 | 0.41 | 0.41 | 61 | 1007.8 |
| 20260509184006 | 16 | 228 | 25.7 | 32.2 | 0.00 | 0.41 | 0.41 | 64 | 1007.8 |
| 20260509183007 | 16 | 205 | 20.9 | 30.6 | 0.00 | 0.41 | 0.41 | 64 | 1007.8 |
| 20260509182008 | 16 | 228 | 14.5 | 22.5 | 0.00 | 0.41 | 0.41 | 72 | 1007.8 |
| 20260509181003 | 15 | 138 | 6.4 | 9.7 | 0.00 | 0.41 | 0.41 | 72 | 1007.8 |
| 20260509180003 | 15 | 228 | 11.3 | 22.5 | 0.00 | 0.41 | 0.41 | 75 | 1008.1 |
| 20260509175004 | 14 | 205 | 11.3 | 14.5 | 0.00 | 0.41 | 0.41 | 75 | 1008.3 |
| 20260509174004 | 15 | 228 | 12.9 | 17.7 | 0.00 | 0.41 | 0.41 | 75 | 1008.4 |
| 20260509173005 | 14 | 228 | 12.9 | 17.7 | 0.00 | 0.41 | 0.41 | 79 | 1008.4 |
| 20260509172005 | 14 | 228 | 12.9 | 17.7 | 0.00 | 0.41 | 0.41 | 80 | 1008.5 |
| 20260509171006 | 13 | 228 | 14.5 | 19.3 | 0.00 | 0.41 | 0.41 | 80 | 1008.6 |
| 20260509170006 | 13 | 228 | 14.5 | 17.7 | 0.00 | 0.41 | 0.41 | 81 | 1008.7 |
| 20260509165007 | 13 | 228 | 14.5 | 17.7 | 0.00 | 0.41 | 0.41 | 83 | 1008.7 |
| 20260509164002 | 13 | 205 | 8.0 | 12.9 | 0.00 | 0.41 | 0.41 | 85 | 1008.7 |
| 20260509163003 | 12 | 228 | 9.7 | 12.9 | 0.00 | 0.41 | 0.41 | 85 | 1008.7 |
| 20260509162004 | 12 | 183 | 9.7 | 12.9 | 0.00 | 0.41 | 0.41 | 85 | 1008.6 |
| 20260509160004 | 12 | 228 | 3.2 | 6.4 | 0.00 | 0.41 | 0.41 | 90 | 1008.6 |
| 20260509155004 | 12 | 205 | 8.0 | 14.5 | 0.00 | 0.41 | 0.41 | 90 | 1008.7 |
| 20260509153003 | 12 | 183 | 4.8 | 8.0 | 0.00 | 0.41 | 0.41 | 93 | 1008.8 |
| 20260509152004 | 11 | 183 | 9.7 | 14.5 | 0.00 | 0.41 | 0.41 | 93 | 1008.8 |
| 20260509151005 | 11 | 205 | 4.8 | 8.0 | 0.00 | 0.41 | 0.41 | 94 | 1008.8 |
| 20260509145005 | 11 | 228 | 9.7 | 14.5 | 0.00 | 0.41 | 0.41 | 95 | 1008.9 |
| 20260509144005 | 11 | 228 | 4.8 | 6.4 | 0.00 | 0.41 | 0.41 | 95 | 1008.9 |
| 20260509143006 | 11 | 183 | 8.0 | 11.3 | 0.00 | 0.41 | 0.41 | 95 | 1009.2 |
| 20260509142001 | 10 | 205 | 8.0 | 11.3 | 0.00 | 0.41 | 0.41 | 95 | 1008.8 |
| 20260509141002 | 11 | 228 | 6.4 | 8.0 | 0.00 | 0.41 | 0.41 | 95 | 1008.8 |
| 20260509140002 | 10 | 183 | 4.8 | 6.4 | 0.00 | 0.41 | 0.41 | 96 | 1008.8 |
| 20260509135003 | 10 | 228 | 6.4 | 9.7 | 0.00 | 0.41 | 0.41 | 96 | 1008.8 |
| 20260509134003 | 10 | 205 | 3.2 | 6.4 | 0.00 | 0.41 | 0.41 | 96 | 1008.9 |
| 20260509133004 | 10 | 183 | 4.8 | 9.7 | 0.00 | 0.41 | 0.41 | 96 | 1008.9 |
| 20260509132005 | 10 | 183 | 4.8 | 8.0 | 0.00 | 0.41 | 0.41 | 96 | 1008.9 |
| 20260509125004 | 10 | 160 | 6.4 | 9.7 | 0.00 | 0.41 | 0.41 | 97 | 1009.1 |
| 20260509124003 | 10 | 228 | 8.0 | 11.3 | 0.00 | 0.41 | 0.41 | 97 | 1009.1 |
| 20260509123007 | 10 | 205 | 6.4 | 9.7 | 0.00 | 0.43 | 0.41 | 97 | 1009.3 |
| 20260509122005 | 10 | 183 | 4.8 | 8.0 | 0.00 | 0.51 | 0.41 | 97 | 1009.4 |
| 20260509121006 | 9 | 205 | 4.8 | 6.4 | 0.00 | 0.56 | 0.41 | 97 | 1009.4 |
| 20260509120005 | 9 | 160 | 6.4 | 8.0 | 0.00 | 0.58 | 0.41 | 97 | 1009.5 |
| 20260509115005 | 9 | 183 | 3.2 | 4.8 | 0.00 | 0.58 | 0.41 | 97 | 1009.5 |
| 20260509114006 | 9 | 160 | 3.2 | 4.8 | 0.00 | 0.58 | 0.41 | 97 | 1009.5 |
| 20260509113001 | 9 | 205 | 4.8 | 6.4 | 0.00 | 0.56 | 0.38 | 97 | 1009.5 |
| 20260509112001 | 9 | 183 | 3.2 | 6.4 | 0.00 | 0.58 | 0.38 | 97 | 1009.4 |
| 20260509111002 | 9 | 160 | 8.0 | 11.3 | 0.00 | 0.69 | 0.38 | 97 | 1009.4 |
| 20260509110002 | 9 | 205 | 4.8 | 9.7 | 0.00 | 0.74 | 0.38 | 97 | 1009.4 |
| 20260509105003 | 9 | 160 | 6.4 | 9.7 | 0.00 | 0.74 | 0.38 | 97 | 1009.4 |
| 20260509104003 | 9 | 160 | 4.8 | 9.7 | 0.00 | 0.74 | 0.38 | 97 | 1009.4 |
| 20260509101002 | 9 | 183 | 3.2 | 4.8 | 0.00 | 0.76 | 0.38 | 97 | 1009.5 |
| 20260509100002 | 9 | 183 | 3.2 | 4.8 | 0.00 | 0.76 | 0.38 | 97 | 1009.5 |
| 20260509095002 | 9 | 228 | 3.2 | 4.8 | 0.00 | 0.79 | 0.38 | 97 | 1009.6 |
| 20260509094003 | 9 | 228 | 3.2 | 4.8 | 0.00 | 0.79 | 0.38 | 97 | 1009.5 |
| 20260509093003 | 9 | 228 | 1.6 | 3.2 | 0.00 | 0.79 | 0.38 | 97 | 1009.5 |
| 20260509092003 | 9 | 228 | 4.8 | 6.4 | 0.00 | 0.79 | 0.38 | 97 | 1009.6 |
| 20260509091004 | 9 | 228 | 3.2 | 4.8 | 0.00 | 0.79 | 0.38 | 97 | 1009.4 |
| 20260509090004 | 9 | 138 | 3.2 | 4.8 | 0.00 | 0.79 | 0.38 | 97 | 1009.4 |
| 20260509084003 | 9 | 93 | 3.2 | 4.8 | 0.00 | 0.76 | 0.36 | 97 | 1009.5 |
| 20260509082001 | 9 | 228 | 3.2 | 6.4 | 0.00 | 0.71 | 0.30 | 96 | 1009.7 |
| 20260509081002 | 9 | 138 | 3.2 | 4.8 | 0.00 | 0.69 | 0.28 | 96 | 1009.6 |
| 20260509080002 | 9 | 205 | 3.2 | 4.8 | 0.00 | 0.66 | 0.25 | 96 | 1009.6 |
| 20260509075002 | 9 | 115 | 4.8 | 4.8 | 0.00 | 0.64 | 0.23 | 96 | 1009.7 |
| 20260509074002 | 9 | 160 | 4.8 | 6.4 | 0.00 | 0.58 | 0.18 | 96 | 1009.7 |
| 20260509073002 | 9 | 138 | 6.4 | 8.0 | 0.00 | 0.56 | 0.15 | 96 | 1009.7 |
| 20260509072002 | 9 | 160 | 6.4 | 9.7 | 0.00 | 0.53 | 0.13 | 96 | 1009.7 |
| 20260509071002 | 9 | 205 | 3.2 | 6.4 | 0.00 | 0.48 | 0.08 | 95 | 1009.9 |
| 20260509070001 | 9 | 183 | 4.8 | 6.4 | 0.00 | 0.48 | 0.08 | 95 | 1009.9 |
| 20260509065002 | 9 | 160 | 6.4 | 9.7 | 0.00 | 0.46 | 0.05 | 94 | 1010.6 |
| 20260509064002 | 9 | 138 | 6.4 | 9.7 | 0.00 | 0.43 | 0.03 | 94 | 1010.1 |
| 20260509062007 | 9 | 183 | 9.7 | 14.5 | 0.00 | 0.43 | 0.03 | 93 | 1010.5 |
| 20260509061001 | 9 | 183 | 8.0 | 12.9 | 0.00 | 0.41 | 0.00 | 93 | 1010.7 |
| 20260509060001 | 9 | 205 | 8.0 | 14.5 | 0.00 | 0.41 | 0.00 | 93 | 1010.8 |
| 20260509054001 | 10 | 160 | 6.4 | 11.3 | 0.00 | 0.41 | 0.00 | 93 | 1010.9 |
| 20260509052002 | 9 | 160 | 6.4 | 8.0 | 0.00 | 0.41 | 0.00 | 92 | 1011.3 |
| 20260509051002 | 9 | 205 | 4.8 | 6.4 | 0.00 | 0.41 | 0.00 | 92 | 1011.3 |
| 20260509050003 | 9 | 160 | 4.8 | 6.4 | 0.00 | 0.41 | 0.00 | 91 | 1011.4 |
| 20260509045004 | 9 | 228 | 3.2 | 4.8 | 0.00 | 0.41 | 0.00 | 90 | 1011.4 |
| 20260509044004 | 10 | 250 | 9.7 | 14.5 | 0.00 | 0.41 | 0.00 | 90 | 1011.5 |
| 20260509043005 | 10 | 228 | 8.0 | 14.5 | 0.00 | 0.41 | 0.00 | 88 | 1011.6 |
| 20260509042005 | 10 | 205 | 8.0 | 14.5 | 0.00 | 0.41 | 0.00 | 86 | 1011.7 |
| 20260509041006 | 10 | 250 | 4.8 | 8.0 | 0.00 | 0.41 | 0.00 | 84 | 1011.6 |
| 20260509040009 | 10 | 250 | 1.6 | 1.6 | 0.00 | 0.41 | 0.00 | 83 | 1011.6 |
| 20260509035007 | 10 | 228 | 4.8 | 8.0 | 0.00 | 0.41 | 0.41 | 81 | 1011.6 |
| 20260509034002 | 10 | 205 | 4.8 | 6.4 | 0.00 | 0.41 | 0.41 | 80 | 1011.7 |
| 20260509032002 | 10 | 228 | 11.3 | 14.5 | 0.00 | 0.41 | 0.41 | 80 | 1011.8 |
| 20260509031003 | 10 | 205 | 9.7 | 16.1 | 0.00 | 0.41 | 0.41 | 79 | 1011.9 |
| 20260509025002 | 10 | 160 | 3.2 | 4.8 | 0.00 | 0.41 | 0.41 | 74 | 1012.1 |
| 20260509024003 | 10 | 183 | 4.8 | 6.4 | 0.00 | 0.41 | 0.41 | 72 | 1012.2 |
| 20260509023004 | 10 | 160 | 4.8 | 6.4 | 0.00 | 0.41 | 0.41 | 69 | 1012.1 |
| 20260509021004 | 11 | 160 | 3.2 | 4.8 | 0.00 | 0.41 | 0.41 | 63 | 1012.1 |
| 20260509015004 | 11 | 160 | 3.2 | 4.8 | 0.00 | 0.41 | 0.41 | 62 | 1012.1 |
| 20260509014004 | 11 | 160 | 4.8 | 6.4 | 0.00 | 0.41 | 0.41 | 62 | 1012.0 |
| 20260509013005 | 11 | 183 | 3.2 | 4.8 | 0.00 | 0.41 | 0.41 | 61 | 1012.1 |
| 20260509012006 | 11 | 160 | 3.2 | 3.2 | 0.00 | 0.41 | 0.41 | 60 | 1011.9 |
| 20260509011007 | 11 | 183 | 3.2 | 4.8 | 0.00 | 0.41 | 0.41 | 59 | 1011.8 |
| 20260509005007 | 11 | 205 | 3.2 | 4.8 | 0.00 | 0.41 | 0.41 | 57 | 1012.0 |
| 20260509004002 | 11 | 228 | 3.2 | 4.8 | 0.00 | 0.41 | 0.41 | 57 | 1011.6 |
| 20260509003002 | 11 | 295 | 6.4 | 8.0 | 0.00 | 0.41 | 0.41 | 55 | 1011.5 |
| 20260509002003 | 11 | 250 | 4.8 | 6.4 | 0.00 | 0.41 | 0.41 | 55 | 1011.3 |
| 20260509001003 | 11 | 250 | 3.2 | 6.4 | 0.00 | 0.41 | 0.41 | 58 | 1011.4 |